Location: De Har
(53.3413°N, 6.6858°E)
Time: 09:03:38
(UTC+00:00)

IDEFIX/ARIANE 42P - Pass Details

Date: 22 April 2026
Orbit: 780 x 797 km, 98.6° (Epoch: 15 May)

Event Time Altitude Azimuth Distance (km) Brightness Sun altitude
Rises 00:08:06 0° 24° (NNE) 3,282 7.1 -24.1°
Reaches altitude 10° 00:10:59 10° 40° (NE) 2,351 5.8 -24.0°
Maximum altitude 00:14:55 22° 90° (E) 1,685 4.3 -23.9°
Enters shadow 00:16:43 18° 118° (ESE) 1,844 4.3 -23.8°
